星链-31015 (STARLINK-31015 )

导读

STARLINK-31015是美国太空探索技术公司星链星座的一员,于2023年12月7日发射入轨。星链项目旨在构建全球卫星互联网星座,该卫星承担为偏远地区、海洋、航空等场景提供低延迟宽带互联网接入服务的任务,作为星链扩容补网卫星,进一步完善了星座覆盖能力,延续了美国低轨卫星星座快速部署节奏。

Basic Information
目录编号:
58521
目录名称:
STARLINK-31015
国际标识:
2023-191P
轨道中心:
EARTH
卫星名称:
星链-31015
卫星全名:
星链-31015 (STARLINK-31015 )
卫星状态:
在轨 (已飞行1009 天)
发射日期:
2023-12-07 UTC
国别 :
美国 (US)
星等 :
--
This satellite is enrolled in the Space Conjunction Data Service (SCDS) and the current flight risk assessment level is: High Risk
Orbit Information
数据来源 国际轨道数据
星历时间: 2026-09-11T09:09:05+0800
16小时前
查看轨道信息
半长轴: 6861.15km
偏心率: 0.0002995
轨道倾角: 43.000°
近地点辐角 251.006°
升交点赤经 136.283°
平近点角 109.047°
近地点: 480.958km
远地点: 485.068km
周期: 94.266分钟
每日圈数: 15.275923
Detailed Information
固有亮度:
5
最大亮度:
0.3
卫星平台:
Starlink v2.0 mini
覆盖范围:
全球
运营商:
太空探索技术公司
运营商所在国:
美国
制造商(研发单位):
太空探索技术公司
制造商所在国:
美国
使用方式:
暂无
Satellite Introduction
星链(Starlink)计划是由太空探索技术公司(SpaceX)提出的一个巨型低轨卫星互联网星座项目,计划在2019年至2024年间在太空搭建由约1.2万颗卫星组成的“星链”网络,其中1584颗将部署在地球上空550千米处的近地轨道,并从2020年开始工作。该卫星仍在工作。
2D Orbit Map
3D Orbit Map
Orbit Altitude Analysis Chart
Orbit Inclination Analysis Chart
Orbit Comprehensive Analysis Chart
View Comprehensive Chart
Conjunction Data List
Event ID Objects TCA Miss Dist (km) Collision Risk Probability Collision Risk Index (CRI) Action
CDM_260910-192505-637605-852121
2026-09-10T
19:25:52+0000
0.507 km
远距离
1.336516E-4 高风险 0.78
CDM_260910-195205-558405-852121
2026-09-10T
19:52:30+0000
0.529 km
远距离
1.21836E-4 高风险 0.77
CDM_260913-205005-558405-852121
2026-09-13T
20:50:45+0000
1.194 km
极远距离
9.36481E-6 低风险 0.54
CDM_260913-090405-558405-852121
2026-09-13T
09:04:36+0000
1.353 km
极远距离
6.107219E-6 低风险 0.51
CDM_260913-191605-558405-852121
2026-09-13T
19:16:36+0000
1.762 km
极远距离
2.681509E-6 低风险 0.44
CDM_260910-175105-637605-852122
2026-09-10T
17:51:43+0000
1.844 km
极远距离
2.333017E-6 低风险 0.42
CDM_260913-103805-558405-852121
2026-09-13T
10:38:46+0000
2.226 km
极远距离
1.504627E-6 低风险 0.39
CDM_260910-212605-558405-852122
2026-09-10T
21:26:39+0000
2.306 km
极远距离
1.39999E-6 低风险 0.38
CDM_260905-234005-852106-630521
OBJECT N (66305)
2026-09-05T
23:40:41+0000
2.597 km
极远距离
1.280245E-6 低风险 0.37
CDM_260910-210005-637605-852121
2026-09-10T
21:00:01+0000
2.666 km
极远距离
1.075176E-6 低风险 0.36
Miss Distance Evolution Trend with All Objects
Collision Probability Evolution Trend with All Objects